When you browse on this site, cookies collect data to enhance your experience and personalize the content and advertising you see.
Visit our Privacy Policy to learn more. By continuing to use the site, you agree to this use of cookies and data.
  • In Czech Republic
  • List of Countries
  • For 7 days
  • Water Temperature
  • Satellite Maps
  • Weather Map
  • Weather Widgets
  • user-avatar
    Login

    Hourly Weather Aberdeen

    Today, 17 December, Monday

    Time Temperature Precipitation Wind Pressure Humidity
    00:00 +4°C° 0 mm 2 mps 745 mmHg 97%
    01:00 +3°C° 0.1 mm 3 mps 746 mmHg 97%
    02:00 +3°C° 0.1 mm 3 mps 746 mmHg 97%
    03:00 +3°C° 0.1 mm 3 mps 746 mmHg 97%
    04:00 +3°C° 0 mm 2 mps 747 mmHg 97%
    05:00 +3°C° 0 mm 2 mps 747 mmHg 97%
    06:00 +3°C° 0 mm 2 mps 748 mmHg 96%
    07:00 +2°C° 0 mm 2 mps 748 mmHg 96%
    08:00 +1°C° 0 mm 3 mps 748 mmHg 96%
    09:00 +1°C° 0 mm 3 mps 749 mmHg 96%
    10:00 +2°C° 0 mm 3 mps 749 mmHg 95%
    11:00 +2°C° 0 mm 3 mps 749 mmHg 95%
    12:00 +3°C° 0 mm 3 mps 749 mmHg 95%
    13:00 +3°C° 0 mm 3 mps 749 mmHg 94%
    14:00 +3°C° 0 mm 3 mps 749 mmHg 94%
    15:00 +3°C° 0 mm 4 mps 749 mmHg 94%
    16:00 +3°C° 0.1 mm 4 mps 749 mmHg 94%
    17:00 +3°C° 0.1 mm 5 mps 748 mmHg 94%
    18:00 +3°C° 0.1 mm 6 mps 748 mmHg 94%
    19:00 +3°C° 0.3 mm 6 mps 748 mmHg 94%
    20:00 +4°C° 0.3 mm 6 mps 748 mmHg 94%
    21:00 +4°C° 0.3 mm 7 mps 747 mmHg 94%
    22:00 +5°C° 0.1 mm 7 mps 747 mmHg 93%
    23:00 +5°C° 0.1 mm 7 mps 746 mmHg 93%

    Tomorrow, 18 December, Tuesday

    Time Temperature Precipitation Wind Pressure Humidity
    00:00 +6°C° 0.1 mm 7 mps 746 mmHg 92%
    01:00 +6°C° 0.1 mm 8 mps 745 mmHg 92%
    02:00 +6°C° 0.1 mm 8 mps 745 mmHg 91%
    03:00 +6°C° 0.1 mm 8 mps 744 mmHg 91%
    04:00 +6°C° 0.1 mm 9 mps 743 mmHg 90%
    05:00 +6°C° 0.1 mm 9 mps 743 mmHg 88%
    06:00 +7°C° 0.1 mm 9 mps 742 mmHg 87%
    07:00 +7°C° 0.2 mm 10 mps 742 mmHg 87%
    08:00 +7°C° 0.2 mm 10 mps 741 mmHg 86%
    09:00 +7°C° 0.2 mm 11 mps 741 mmHg 86%
    10:00 +7°C° 1.1 mm 11 mps 740 mmHg 87%
    11:00 +7°C° 1.1 mm 11 mps 740 mmHg 87%
    12:00 +7°C° 1.1 mm 11 mps 739 mmHg 88%
    13:00 +6°C° 1.7 mm 11 mps 738 mmHg 88%
    14:00 +6°C° 1.7 mm 11 mps 738 mmHg 87%
    15:00 +6°C° 1.7 mm 11 mps 737 mmHg 87%
    16:00 +6°C° 1.4 mm 10 mps 737 mmHg 88%
    17:00 +6°C° 1.4 mm 10 mps 737 mmHg 89%
    18:00 +6°C° 1.4 mm 9 mps 737 mmHg 90%
    19:00 +5°C° 0.2 mm 8 mps 738 mmHg 90%
    20:00 +5°C° 0.2 mm 6 mps 738 mmHg 90%
    21:00 +5°C° 0.2 mm 4 mps 738 mmHg 90%
    22:00 +5°C° 0 mm 4 mps 739 mmHg 91%
    23:00 +5°C° 0 mm 4 mps 739 mmHg 92%

    Day after tomorrow, 19 December, Wednesday

    Time Temperature Precipitation Wind Pressure Humidity
    00:00 +4°C° 0 mm 3 mps 739 mmHg 94%
    01:00 +4°C° 0 mm 4 mps 740 mmHg 94%
    02:00 +4°C° 0 mm 4 mps 740 mmHg 94%
    03:00 +4°C° 0 mm 4 mps 740 mmHg 95%
    04:00 +4°C° 0 mm 4 mps 740 mmHg 95%
    05:00 +3°C° 0 mm 4 mps 740 mmHg 94%
    06:00 +3°C° 0 mm 4 mps 740 mmHg 94%
    07:00 +3°C° 0 mm 4 mps 741 mmHg 93%
    08:00 +3°C° 0 mm 4 mps 741 mmHg 93%
    09:00 +1°C° 0 mm 4 mps 741 mmHg 92%
    10:00 +3°C° 0 mm 4 mps 741 mmHg 90%
    11:00 +3°C° 0 mm 5 mps 741 mmHg 88%
    12:00 +3°C° 0 mm 5 mps 741 mmHg 85%
    13:00 +3°C° 0 mm 5 mps 741 mmHg 86%
    14:00 +3°C° 0 mm 5 mps 741 mmHg 86%
    15:00 +3°C° 0 mm 5 mps 741 mmHg 86%
    16:00 +3°C° 0.1 mm 5 mps 741 mmHg 87%
    17:00 +3°C° 0.1 mm 6 mps 741 mmHg 88%
    18:00 +3°C° 0.1 mm 6 mps 741 mmHg 89%
    19:00 +3°C° 0.1 mm 6 mps 741 mmHg 90%
    20:00 +3°C° 0.1 mm 6 mps 741 mmHg 90%
    21:00 +3°C° 0.1 mm 6 mps 740 mmHg 90%
    22:00 +3°C° 0.1 mm 6 mps 740 mmHg 91%
    23:00 +3°C° 0.1 mm 6 mps 740 mmHg 91%

    20 December, Thursday

    Time Temperature Precipitation Wind Pressure Humidity
    00:00 +3°C° 0.1 mm 6 mps 740 mmHg 91%
    01:00 +3°C° 0.1 mm 6 mps 740 mmHg 92%
    02:00 +3°C° 0.1 mm 5 mps 740 mmHg 92%
    03:00 +3°C° 0.1 mm 5 mps 740 mmHg 93%
    04:00 +3°C° 0 mm 5 mps 740 mmHg 93%
    05:00 +2°C° 0 mm 5 mps 740 mmHg 93%
    06:00 +3°C° 0 mm 4 mps 740 mmHg 93%
    07:00 +3°C° 0.1 mm 5 mps 740 mmHg 93%
    08:00 +3°C° 0.1 mm 5 mps 740 mmHg 92%
    09:00 +3°C° 0.1 mm 5 mps 740 mmHg 92%
    10:00 +3°C° 0.1 mm 5 mps 740 mmHg 91%
    11:00 +4°C° 0.1 mm 6 mps 740 mmHg 90%
    12:00 +4°C° 0.1 mm 6 mps 741 mmHg 88%
    13:00 +4°C° 0.1 mm 6 mps 741 mmHg 89%
    14:00 +4°C° 0.1 mm 6 mps 741 mmHg 89%
    15:00 +5°C° 0.1 mm 5 mps 741 mmHg 89%
    16:00 +5°C° 0 mm 5 mps 741 mmHg 90%
    17:00 +3°C° 0 mm 5 mps 742 mmHg 91%
    18:00 +3°C° 0 mm 5 mps 742 mmHg 92%
    19:00 +3°C° 0 mm 5 mps 742 mmHg 92%
    20:00 +3°C° 0 mm 5 mps 743 mmHg 92%
    21:00 +3°C° 0 mm 5 mps 743 mmHg 93%
    22:00 +3°C° 0 mm 5 mps 743 mmHg 93%
    23:00 +2°C° 0 mm 5 mps 743 mmHg 94%

    21 December, Friday

    Time Temperature Precipitation Wind Pressure Humidity
    00:00 +2°C° 0 mm 5 mps 743 mmHg 95%
    01:00 +3°C° 0 mm 4 mps 743 mmHg 95%
    02:00 +3°C° 0 mm 3 mps 742 mmHg 95%
    03:00 +3°C° 0 mm 3 mps 742 mmHg 96%
    04:00 +3°C° 0 mm 3 mps 741 mmHg 95%
    05:00 +3°C° 0 mm 3 mps 741 mmHg 95%
    06:00 +3°C° 0 mm 3 mps 740 mmHg 95%
    07:00 +3°C° 0.3 mm 3 mps 739 mmHg 95%
    08:00 +3°C° 0.3 mm 4 mps 739 mmHg 95%
    09:00 +4°C° 0.3 mm 4 mps 738 mmHg 95%
    10:00 +4°C° 0.5 mm 4 mps 738 mmHg 95%
    11:00 +4°C° 0.5 mm 4 mps 737 mmHg 95%
    12:00 +3°C° 0.5 mm 5 mps 737 mmHg 95%
    13:00 +3°C° 0.5 mm 5 mps 737 mmHg 95%
    14:00 +3°C° 0.5 mm 5 mps 737 mmHg 95%
    15:00 +3°C° 0.5 mm 5 mps 737 mmHg 95%
    16:00 +4°C° 0.5 mm 4 mps 738 mmHg 95%
    17:00 +4°C° 0.5 mm 4 mps 739 mmHg 95%
    18:00 +4°C° 0.5 mm 3 mps 740 mmHg 95%
    19:00 +4°C° 0.3 mm 3 mps 740 mmHg 94%
    20:00 +5°C° 0.3 mm 2 mps 741 mmHg 94%
    21:00 +5°C° 0.3 mm 2 mps 742 mmHg 94%
    22:00 +5°C° 0.2 mm 2 mps 743 mmHg 93%
    23:00 +4°C° 0.2 mm 2 mps 743 mmHg 92%

    22 December, Saturday

    Time Temperature Precipitation Wind Pressure Humidity
    00:00 +4°C° 0.2 mm 2 mps 744 mmHg 92%
    01:00 +3°C° 0 mm 3 mps 744 mmHg 92%
    02:00 +3°C° 0 mm 3 mps 744 mmHg 92%
    03:00 +3°C° 0 mm 3 mps 745 mmHg 91%
    04:00 +3°C° 0 mm 3 mps 745 mmHg 92%
    05:00 +3°C° 0 mm 4 mps 745 mmHg 92%
    06:00 +3°C° 0 mm 4 mps 746 mmHg 92%
    07:00 +3°C° 0.1 mm 4 mps 746 mmHg 93%
    08:00 +3°C° 0.1 mm 4 mps 747 mmHg 93%
    09:00 +3°C° 0.1 mm 4 mps 747 mmHg 93%
    10:00 +3°C° 0 mm 4 mps 747 mmHg 93%
    11:00 +4°C° 0 mm 4 mps 748 mmHg 92%
    12:00 +4°C° 0 mm 4 mps 748 mmHg 92%
    13:00 +4°C° 0 mm 4 mps 748 mmHg 93%
    14:00 +4°C° 0 mm 4 mps 749 mmHg 94%
    15:00 +4°C° 0 mm 3 mps 749 mmHg 94%
    16:00 +4°C° 0 mm 3 mps 749 mmHg 94%
    17:00 +3°C° 0 mm 3 mps 750 mmHg 94%
    18:00 +3°C° 0 mm 3 mps 750 mmHg 94%
    19:00 +3°C° 0 mm 3 mps 751 mmHg 94%
    20:00 +3°C° 0 mm 3 mps 751 mmHg 95%
    21:00 +3°C° 0 mm 3 mps 751 mmHg 95%
    22:00 +3°C° 0 mm 3 mps 751 mmHg 95%
    23:00 +3°C° 0 mm 3 mps 751 mmHg 95%
    Show more